contact:dominique.lefevre@mio.osupytheas.fr, maurice.libes@osupytheas.fr, didier.mallarino@osupytheas.fr
Project:EMSO http://www.emso-fr.org/EMSO-France
Depth: 2436.0 m
Title:EMSO Ligure Ouest : Data MII capteur CSTAR
DateTime,Latitude,Longitude,Instrument_Serial,Reference_Counts,Signal_Counts,Corrected_Signal_raw_counts,Calculated_Beam_c_inverse_meters,Internal_thermistor_counts
DateTime,Latitude,Longitude,Instrument_Serial,Reference_Counts,Signal_Counts,Corrected_Signal_raw_counts,Calculated_Beam_c_inverse_meters,Internal_thermistor_counts
2019-10-25T00:02:24,42.805,6.029,CST-1368DR,7523,10538,15329,0.074,551
2019-10-25T00:05:26,42.805,6.029,CST-1368DR,7523,10538,15329,0.074,551
2019-10-25T00:08:28,42.805,6.029,CST-1368DR,7523,10538,15329,0.074,551
2019-10-25T00:11:29,42.805,6.029,CST-1368DR,7523,10537,15329,0.074,551
2019-10-25T00:14:31,42.805,6.029,CST-1368DR,7523,10538,15330,0.074,551
2019-10-25T00:17:33,42.805,6.029,CST-1368DR,7523,10537,15329,0.074,550
2019-10-25T00:20:34,42.805,6.029,CST-1368DR,7523,10537,15329,0.074,551
2019-10-25T00:23:36,42.805,6.029,CST-1368DR,7523,10538,15330,0.074,551
2019-10-25T00:26:38,42.805,6.029,CST-1368DR,7523,10537,15328,0.074,551
2019-10-25T00:29:39,42.805,6.029,CST-1368DR,7523,10534,15325,0.075,551
2019-10-25T00:32:41,42.805,6.029,CST-1368DR,7523,10536,15327,0.075,551
2019-10-25T00:35:42,42.805,6.029,CST-1368DR,7523,10536,15327,0.075,551
2019-10-25T00:38:44,42.805,6.029,CST-1368DR,7523,10536,15328,0.074,551
2019-10-25T00:41:46,42.805,6.029,CST-1368DR,7523,10537,15329,0.074,551
2019-10-25T00:44:47,42.805,6.029,CST-1368DR,7523,10537,15329,0.074,551
2019-10-25T00:47:49,42.805,6.029,CST-1368DR,7523,10537,15328,0.074,551
2019-10-25T00:50:51,42.805,6.029,CST-1368DR,7523,10537,15328,0.074,551
2019-10-25T00:53:52,42.805,6.029,CST-1368DR,7522,10536,15329,0.074,550
2019-10-25T00:56:54,42.805,6.029,CST-1368DR,7523,10536,15327,0.075,551
2019-10-25T00:59:56,42.805,6.029,CST-1368DR,7522,10532,15323,0.076,551
2019-10-25T01:02:57,42.805,6.029,CST-1368DR,7522,10535,15328,0.074,551
2019-10-25T01:05:59,42.805,6.029,CST-1368DR,7522,10535,15328,0.074,551
2019-10-25T01:09:01,42.805,6.029,CST-1368DR,7522,10537,15331,0.074,550
2019-10-25T01:12:02,42.805,6.029,CST-1368DR,7522,10536,15329,0.074,551
2019-10-25T01:15:04,42.805,6.029,CST-1368DR,7522,10537,15330,0.074,551
2019-10-25T01:18:06,42.805,6.029,CST-1368DR,7522,10537,15330,0.074,551
2019-10-25T01:21:07,42.805,6.029,CST-1368DR,7522,10530,15320,0.077,551
2019-10-25T01:24:09,42.805,6.029,CST-1368DR,7522,10536,15329,0.074,551
2019-10-25T01:27:11,42.805,6.029,CST-1368DR,7522,10537,15330,0.074,551
2019-10-25T01:30:12,42.805,6.029,CST-1368DR,7522,10537,15330,0.074,551
2019-10-25T01:33:14,42.805,6.029,CST-1368DR,7522,10536,15328,0.074,551
2019-10-25T01:36:16,42.805,6.029,CST-1368DR,7522,10537,15331,0.074,551
2019-10-25T01:39:17,42.805,6.029,CST-1368DR,7522,10538,15331,0.074,551
2019-10-25T01:42:19,42.805,6.029,CST-1368DR,7522,10537,15330,0.074,551
2019-10-25T01:45:20,42.805,6.029,CST-1368DR,7522,10537,15330,0.074,550
2019-10-25T01:48:22,42.805,6.029,CST-1368DR,7522,10534,15326,0.075,551
2019-10-25T01:51:24,42.805,6.029,CST-1368DR,7522,10534,15327,0.075,551
2019-10-25T01:54:25,42.805,6.029,CST-1368DR,7522,10536,15329,0.074,550
2019-10-25T01:57:27,42.805,6.029,CST-1368DR,7522,10537,15331,0.074,551
2019-10-25T02:00:29,42.805,6.029,CST-1368DR,7522,10537,15331,0.074,551
2019-10-25T02:03:30,42.805,6.029,CST-1368DR,7522,10536,15328,0.074,551
2019-10-25T02:06:32,42.805,6.029,CST-1368DR,7522,10537,15330,0.074,551
2019-10-25T02:09:34,42.805,6.029,CST-1368DR,7522,10537,15330,0.074,551
2019-10-25T02:12:35,42.805,6.029,CST-1368DR,7522,10535,15328,0.074,551
2019-10-25T02:15:37,42.805,6.029,CST-1368DR,7522,10536,15328,0.074,550
2019-10-25T02:18:38,42.805,6.029,CST-1368DR,7522,10536,15329,0.074,551
2019-10-25T02:21:40,42.805,6.029,CST-1368DR,7522,10537,15330,0.074,551
2019-10-25T02:24:42,42.805,6.029,CST-1368DR,7522,10535,15328,0.074,551
2019-10-25T02:27:43,42.805,6.029,CST-1368DR,7522,10535,15328,0.074,551
2019-10-25T02:30:45,42.805,6.029,CST-1368DR,7522,10535,15327,0.075,551
2019-10-25T02:33:47,42.805,6.029,CST-1368DR,7522,10536,15329,0.074,551
2019-10-25T02:36:48,42.805,6.029,CST-1368DR,7522,10535,15328,0.074,551
2019-10-25T02:39:50,42.805,6.029,CST-1368DR,7522,10536,15329,0.074,551
2019-10-25T02:42:52,42.805,6.029,CST-1368DR,7522,10536,15329,0.074,550
2019-10-25T02:45:53,42.805,6.029,CST-1368DR,7522,10535,15327,0.075,551
2019-10-25T02:48:55,42.805,6.029,CST-1368DR,7522,10536,15329,0.074,551
2019-10-25T02:51:57,42.805,6.029,CST-1368DR,7522,10537,15330,0.074,551
2019-10-25T02:54:58,42.805,6.029,CST-1368DR,7522,10536,15328,0.074,551
2019-10-25T02:58:00,42.805,6.029,CST-1368DR,7522,10535,15328,0.074,551
2019-10-25T03:01:01,42.805,6.029,CST-1368DR,7522,10536,15328,0.074,550
2019-10-25T03:04:03,42.805,6.029,CST-1368DR,7522,10533,15325,0.075,551
2019-10-25T03:07:05,42.805,6.029,CST-1368DR,7522,10534,15326,0.075,551
2019-10-25T03:10:06,42.805,6.029,CST-1368DR,7522,10532,15323,0.076,551
2019-10-25T03:13:08,42.805,6.029,CST-1368DR,7522,10534,15326,0.075,551
2019-10-25T03:16:10,42.805,6.029,CST-1368DR,7522,10503,15281,0.087,551
2019-10-25T03:19:11,42.805,6.029,CST-1368DR,7522,10534,15327,0.075,551
2019-10-25T03:22:13,42.805,6.029,CST-1368DR,7522,10535,15328,0.074,551
2019-10-25T03:25:15,42.805,6.029,CST-1368DR,7522,10535,15327,0.075,551
2019-10-25T03:28:16,42.805,6.029,CST-1368DR,7522,10536,15328,0.074,551
2019-10-25T03:31:18,42.805,6.029,CST-1368DR,7522,10534,15326,0.075,550
2019-10-25T03:34:20,42.805,6.029,CST-1368DR,7522,10536,15328,0.074,550
2019-10-25T03:37:21,42.805,6.029,CST-1368DR,7522,10535,15328,0.074,551
2019-10-25T03:40:23,42.805,6.029,CST-1368DR,7522,10532,15324,0.076,551
2019-10-25T03:43:25,42.805,6.029,CST-1368DR,7522,10535,15327,0.075,551
2019-10-25T03:46:26,42.805,6.029,CST-1368DR,7522,10535,15328,0.074,551
2019-10-25T03:49:28,42.805,6.029,CST-1368DR,7522,10535,15328,0.074,550
2019-10-25T03:52:29,42.805,6.029,CST-1368DR,7522,10536,15328,0.074,550
2019-10-25T03:55:31,42.805,6.029,CST-1368DR,7522,10535,15328,0.074,551
2019-10-25T03:58:33,42.805,6.029,CST-1368DR,7522,10535,15327,0.075,551
2019-10-25T04:01:35,42.805,6.029,CST-1368DR,7522,10535,15328,0.074,551
2019-10-25T04:04:36,42.805,6.029,CST-1368DR,7522,10535,15327,0.075,551
2019-10-25T04:07:38,42.805,6.029,CST-1368DR,7522,10535,15327,0.075,551
2019-10-25T04:10:40,42.805,6.029,CST-1368DR,7522,10534,15327,0.075,551
2019-10-25T04:13:41,42.805,6.029,CST-1368DR,7522,10535,15328,0.074,551
2019-10-25T04:16:43,42.805,6.029,CST-1368DR,7522,10534,15326,0.075,551
2019-10-25T04:19:45,42.805,6.029,CST-1368DR,7522,10535,15327,0.075,551
2019-10-25T04:22:46,42.805,6.029,CST-1368DR,7522,10535,15327,0.075,550
2019-10-25T04:25:48,42.805,6.029,CST-1368DR,7522,10535,15327,0.075,551
2019-10-25T04:28:49,42.805,6.029,CST-1368DR,7522,10534,15326,0.075,551
2019-10-25T04:31:51,42.805,6.029,CST-1368DR,7521,10535,15329,0.074,551
2019-10-25T04:34:53,42.805,6.029,CST-1368DR,7521,10534,15328,0.074,551
2019-10-25T04:37:54,42.805,6.029,CST-1368DR,7521,10533,15326,0.075,551
2019-10-25T04:40:56,42.805,6.029,CST-1368DR,7522,10533,15325,0.075,551
2019-10-25T04:43:58,42.805,6.029,CST-1368DR,7521,10535,15329,0.074,551
2019-10-25T04:46:59,42.805,6.029,CST-1368DR,7521,10534,15328,0.074,551
2019-10-25T04:50:01,42.805,6.029,CST-1368DR,7521,10536,15330,0.074,551
2019-10-25T04:53:03,42.805,6.029,CST-1368DR,7521,10535,15329,0.074,551
2019-10-25T04:56:04,42.805,6.029,CST-1368DR,7522,10535,15328,0.074,551
2019-10-25T04:59:06,42.805,6.029,CST-1368DR,7521,10535,15329,0.074,551
2019-10-25T05:02:08,42.805,6.029,CST-1368DR,7521,10535,15330,0.074,551
2019-10-25T05:05:09,42.805,6.029,CST-1368DR,7521,10535,15329,0.074,551
2019-10-25T05:08:11,42.805,6.029,CST-1368DR,7521,10535,15329,0.074,550
2019-10-25T05:11:13,42.805,6.029,CST-1368DR,7521,10535,15329,0.074,551
2019-10-25T05:14:14,42.805,6.029,CST-1368DR,7521,10535,15329,0.074,551
2019-10-25T05:17:16,42.805,6.029,CST-1368DR,7521,10535,15329,0.074,551
2019-10-25T05:20:18,42.805,6.029,CST-1368DR,7521,10534,15328,0.074,551
2019-10-25T05:23:19,42.805,6.029,CST-1368DR,7521,10535,15329,0.074,551
2019-10-25T05:26:21,42.805,6.029,CST-1368DR,7521,10534,15328,0.074,551
2019-10-25T05:29:23,42.805,6.029,CST-1368DR,7521,10534,15328,0.074,551
2019-10-25T05:32:24,42.805,6.029,CST-1368DR,7521,10535,15330,0.074,551
2019-10-25T05:35:26,42.805,6.029,CST-1368DR,7521,10534,15328,0.074,551
2019-10-25T05:38:28,42.805,6.029,CST-1368DR,7521,10535,15329,0.074,551
2019-10-25T05:41:29,42.805,6.029,CST-1368DR,7521,10534,15328,0.074,551
2019-10-25T05:44:31,42.805,6.029,CST-1368DR,7521,10532,15326,0.075,551
2019-10-25T05:47:33,42.805,6.029,CST-1368DR,7521,10534,15328,0.074,551
2019-10-25T05:50:34,42.805,6.029,CST-1368DR,7521,10534,15328,0.074,551
2019-10-25T05:53:36,42.805,6.029,CST-1368DR,7521,10534,15328,0.074,551
2019-10-25T05:56:37,42.805,6.029,CST-1368DR,7521,10534,15328,0.074,551
2019-10-25T05:59:39,42.805,6.029,CST-1368DR,7521,10533,15327,0.075,550
2019-10-25T06:02:41,42.805,6.029,CST-1368DR,7521,10535,15329,0.074,551
2019-10-25T06:05:42,42.805,6.029,CST-1368DR,7521,10531,15323,0.076,551
2019-10-25T06:08:44,42.805,6.029,CST-1368DR,7521,10532,15325,0.075,551
2019-10-25T06:11:46,42.805,6.029,CST-1368DR,7521,10528,15319,0.077,551
2019-10-25T06:14:47,42.805,6.029,CST-1368DR,7521,10532,15325,0.075,551
2019-10-25T06:17:49,42.805,6.029,CST-1368DR,7521,10534,15327,0.075,551
2019-10-25T06:20:51,42.805,6.029,CST-1368DR,7521,10532,15324,0.076,551
2019-10-25T06:23:52,42.805,6.029,CST-1368DR,7521,10534,15328,0.074,551
2019-10-25T06:26:54,42.805,6.029,CST-1368DR,7521,10534,15328,0.074,551
2019-10-25T06:29:56,42.805,6.029,CST-1368DR,7521,10534,15328,0.074,551
2019-10-25T06:32:57,42.805,6.029,CST-1368DR,7521,10533,15327,0.075,551
2019-10-25T06:35:59,42.805,6.029,CST-1368DR,7521,10533,15327,0.075,551
2019-10-25T06:39:00,42.805,6.029,CST-1368DR,7521,10533,15327,0.075,551
2019-10-25T06:42:02,42.805,6.029,CST-1368DR,7521,10534,15328,0.074,551
2019-10-25T06:45:04,42.805,6.029,CST-1368DR,7521,10534,15328,0.074,549
2019-10-25T06:48:05,42.805,6.029,CST-1368DR,7520,10395,15128,0.127,551
2019-10-25T06:51:07,42.805,6.029,CST-1368DR,7521,10533,15326,0.075,551
2019-10-25T06:54:09,42.805,6.029,CST-1368DR,7521,10535,15329,0.074,551
2019-10-25T06:57:10,42.805,6.029,CST-1368DR,7521,10534,15327,0.075,551
2019-10-25T07:00:12,42.805,6.029,CST-1368DR,7521,10533,15327,0.075,550
2019-10-25T07:03:14,42.805,6.029,CST-1368DR,7521,10534,15327,0.075,551
2019-10-25T07:06:15,42.805,6.029,CST-1368DR,7521,10533,15326,0.075,551
2019-10-25T07:09:17,42.805,6.029,CST-1368DR,7521,10533,15327,0.075,551
2019-10-25T07:12:19,42.805,6.029,CST-1368DR,7521,10533,15327,0.075,551
2019-10-25T07:15:20,42.805,6.029,CST-1368DR,7521,10532,15325,0.075,551
2019-10-25T07:18:22,42.805,6.029,CST-1368DR,7521,10535,15329,0.074,551
2019-10-25T07:21:23,42.805,6.029,CST-1368DR,7521,10531,15323,0.076,551
2019-10-25T07:24:25,42.805,6.029,CST-1368DR,7521,10533,15327,0.075,550
2019-10-25T07:27:27,42.805,6.029,CST-1368DR,7521,10534,15328,0.074,551
2019-10-25T07:30:29,42.805,6.029,CST-1368DR,7521,10534,15328,0.074,551
2019-10-25T07:33:30,42.805,6.029,CST-1368DR,7521,10534,15328,0.074,550
2019-10-25T07:36:32,42.805,6.029,CST-1368DR,7521,10534,15328,0.074,551
2019-10-25T07:39:33,42.805,6.029,CST-1368DR,7521,10532,15326,0.075,551
2019-10-25T07:42:35,42.805,6.029,CST-1368DR,7521,10535,15329,0.074,551
2019-10-25T07:45:37,42.805,6.029,CST-1368DR,7521,10533,15327,0.075,551
2019-10-25T07:48:38,42.805,6.029,CST-1368DR,7521,10534,15328,0.074,551
2019-10-25T07:51:40,42.805,6.029,CST-1368DR,7521,10534,15328,0.074,551
2019-10-25T07:54:42,42.805,6.029,CST-1368DR,7521,10533,15326,0.075,551
2019-10-25T07:57:43,42.805,6.029,CST-1368DR,7521,10533,15327,0.075,551
2019-10-25T08:00:45,42.805,6.029,CST-1368DR,7520,10534,15329,0.074,551
2019-10-25T08:03:47,42.805,6.029,CST-1368DR,7520,10532,15327,0.075,551
2019-10-25T08:06:48,42.805,6.029,CST-1368DR,7520,10533,15328,0.074,551
2019-10-25T08:09:50,42.805,6.029,CST-1368DR,7520,10533,15329,0.074,551
2019-10-25T08:12:52,42.805,6.029,CST-1368DR,7521,10534,15328,0.074,551
2019-10-25T08:15:53,42.805,6.029,CST-1368DR,7521,10534,15328,0.074,551
2019-10-25T08:18:55,42.805,6.029,CST-1368DR,7520,10534,15330,0.074,551
2019-10-25T08:21:57,42.805,6.029,CST-1368DR,7520,10533,15328,0.074,550
2019-10-25T08:24:58,42.805,6.029,CST-1368DR,7520,10534,15330,0.074,551
2019-10-25T08:28:00,42.805,6.029,CST-1368DR,7520,10534,15330,0.074,551
2019-10-25T08:31:02,42.805,6.029,CST-1368DR,7520,10534,15329,0.074,551
2019-10-25T08:34:03,42.805,6.029,CST-1368DR,7520,10533,15328,0.074,551
2019-10-25T08:37:05,42.805,6.029,CST-1368DR,7520,10533,15328,0.074,551
2019-10-25T08:40:07,42.805,6.029,CST-1368DR,7520,10532,15327,0.075,551
2019-10-25T08:43:08,42.805,6.029,CST-1368DR,7520,10534,15330,0.074,550
2019-10-25T08:46:10,42.805,6.029,CST-1368DR,7520,10533,15328,0.074,551
2019-10-25T08:49:12,42.805,6.029,CST-1368DR,7520,10533,15328,0.074,551
2019-10-25T08:52:13,42.805,6.029,CST-1368DR,7520,10533,15328,0.074,551
2019-10-25T08:55:15,42.805,6.029,CST-1368DR,7520,10533,15328,0.074,551
2019-10-25T08:58:17,42.805,6.029,CST-1368DR,7520,10533,15329,0.074,551
2019-10-25T09:01:19,42.805,6.029,CST-1368DR,7520,10532,15327,0.075,551
2019-10-25T09:04:20,42.805,6.029,CST-1368DR,7520,10532,15327,0.075,551
2019-10-25T09:07:22,42.805,6.029,CST-1368DR,7520,10533,15329,0.074,551
2019-10-25T09:10:23,42.805,6.029,CST-1368DR,7520,10534,15330,0.074,551
2019-10-25T09:13:25,42.805,6.029,CST-1368DR,7520,10534,15329,0.074,551
2019-10-25T09:16:27,42.805,6.029,CST-1368DR,7520,10534,15329,0.074,551
2019-10-25T09:19:28,42.805,6.029,CST-1368DR,7520,10534,15329,0.074,551
2019-10-25T09:22:30,42.805,6.029,CST-1368DR,7520,10533,15329,0.074,551
2019-10-25T09:25:32,42.805,6.029,CST-1368DR,7520,10533,15329,0.074,551
2019-10-25T09:28:33,42.805,6.029,CST-1368DR,7520,10532,15327,0.075,551
2019-10-25T09:31:35,42.805,6.029,CST-1368DR,7520,10532,15327,0.075,551
2019-10-25T09:34:37,42.805,6.029,CST-1368DR,7520,10532,15327,0.075,551
2019-10-25T09:37:38,42.805,6.029,CST-1368DR,7520,10534,15330,0.074,551
2019-10-25T09:40:40,42.805,6.029,CST-1368DR,7520,10533,15328,0.074,551
2019-10-25T09:43:42,42.805,6.029,CST-1368DR,7520,10532,15327,0.075,551
2019-10-25T09:46:43,42.805,6.029,CST-1368DR,7520,10533,15328,0.074,551
2019-10-25T09:49:45,42.805,6.029,CST-1368DR,7520,10532,15327,0.075,551
2019-10-25T09:52:47,42.805,6.029,CST-1368DR,7520,10532,15327,0.075,551
2019-10-25T09:55:48,42.805,6.029,CST-1368DR,7520,10532,15326,0.075,551
2019-10-25T09:58:50,42.805,6.029,CST-1368DR,7520,10531,15326,0.075,551
2019-10-25T10:01:52,42.805,6.029,CST-1368DR,7520,10532,15327,0.075,551
2019-10-25T10:04:53,42.805,6.029,CST-1368DR,7520,10530,15324,0.076,551
2019-10-25T10:07:55,42.805,6.029,CST-1368DR,7520,10531,15325,0.075,551
2019-10-25T10:10:57,42.805,6.029,CST-1368DR,7520,10531,15326,0.075,551
2019-10-25T10:13:58,42.805,6.029,CST-1368DR,7520,10532,15326,0.075,551
2019-10-25T10:17:00,42.805,6.029,CST-1368DR,7520,10532,15327,0.075,551
2019-10-25T10:20:02,42.805,6.029,CST-1368DR,7520,10532,15327,0.075,551
2019-10-25T10:23:03,42.805,6.029,CST-1368DR,7520,10532,15327,0.075,551
2019-10-25T10:26:05,42.805,6.029,CST-1368DR,7520,10532,15327,0.075,551
2019-10-25T10:29:06,42.805,6.029,CST-1368DR,7520,10533,15328,0.074,551
2019-10-25T10:32:08,42.805,6.029,CST-1368DR,7520,10532,15327,0.075,551
2019-10-25T10:35:10,42.805,6.029,CST-1368DR,7520,10533,15329,0.074,551
2019-10-25T10:38:11,42.805,6.029,CST-1368DR,7520,10532,15327,0.075,551
2019-10-25T10:41:13,42.805,6.029,CST-1368DR,7520,10532,15327,0.075,551
2019-10-25T10:44:15,42.805,6.029,CST-1368DR,7520,10531,15325,0.075,551
2019-10-25T10:47:16,42.805,6.029,CST-1368DR,7520,10531,15326,0.075,551
2019-10-25T10:50:18,42.805,6.029,CST-1368DR,7520,10532,15327,0.075,551
2019-10-25T10:53:20,42.805,6.029,CST-1368DR,7520,10532,15327,0.075,551
2019-10-25T10:56:22,42.805,6.029,CST-1368DR,7520,10533,15328,0.074,551
2019-10-25T10:59:23,42.805,6.029,CST-1368DR,7520,10531,15325,0.075,551
2019-10-25T11:02:25,42.805,6.029,CST-1368DR,7520,10532,15327,0.075,551
2019-10-25T11:05:27,42.805,6.029,CST-1368DR,7520,10531,15326,0.075,551
2019-10-25T11:08:28,42.805,6.029,CST-1368DR,7519,10531,15327,0.075,551
2019-10-25T11:11:30,42.805,6.029,CST-1368DR,7520,10532,15327,0.075,551
2019-10-25T11:14:31,42.805,6.029,CST-1368DR,7520,10532,15327,0.075,551
2019-10-25T11:17:33,42.805,6.029,CST-1368DR,7520,10532,15327,0.075,551
2019-10-25T11:20:35,42.805,6.029,CST-1368DR,7520,10532,15327,0.075,551
2019-10-25T11:23:37,42.805,6.029,CST-1368DR,7519,10530,15326,0.075,551
2019-10-25T11:26:38,42.805,6.029,CST-1368DR,7519,10532,15329,0.074,551
2019-10-25T11:29:40,42.805,6.029,CST-1368DR,7519,10531,15328,0.074,551
2019-10-25T11:32:42,42.805,6.029,CST-1368DR,7519,10532,15329,0.074,551
2019-10-25T11:35:44,42.805,6.029,CST-1368DR,7519,10532,15328,0.074,551
2019-10-25T11:38:45,42.805,6.029,CST-1368DR,7519,10532,15329,0.074,551
2019-10-25T11:41:47,42.805,6.029,CST-1368DR,7519,10532,15329,0.074,550
2019-10-25T11:44:49,42.805,6.029,CST-1368DR,7519,10532,15329,0.074,551
2019-10-25T11:47:50,42.805,6.029,CST-1368DR,7519,10532,15329,0.074,551
2019-10-25T11:50:52,42.805,6.029,CST-1368DR,7519,10531,15327,0.075,551
2019-10-25T11:53:54,42.805,6.029,CST-1368DR,7519,10530,15326,0.075,551
2019-10-25T11:56:55,42.805,6.029,CST-1368DR,7519,10532,15329,0.074,550
2019-10-25T11:59:57,42.805,6.029,CST-1368DR,7519,10531,15327,0.075,551
2019-10-25T12:02:58,42.805,6.029,CST-1368DR,7519,10531,15328,0.074,551
2019-10-25T12:06:00,42.805,6.029,CST-1368DR,7519,10531,15328,0.074,551
2019-10-25T12:09:02,42.805,6.029,CST-1368DR,7519,10532,15329,0.074,551
2019-10-25T12:12:03,42.805,6.029,CST-1368DR,7519,10531,15327,0.075,551
2019-10-25T12:15:05,42.805,6.029,CST-1368DR,7519,10531,15328,0.074,551
2019-10-25T12:18:07,42.805,6.029,CST-1368DR,7519,10532,15329,0.074,551
2019-10-25T12:21:08,42.805,6.029,CST-1368DR,7519,10532,15329,0.074,551
2019-10-25T12:24:10,42.805,6.029,CST-1368DR,7519,10532,15328,0.074,551
2019-10-25T12:27:12,42.805,6.029,CST-1368DR,7519,10532,15329,0.074,551
2019-10-25T12:30:13,42.805,6.029,CST-1368DR,7519,10532,15328,0.074,551
2019-10-25T12:33:15,42.805,6.029,CST-1368DR,7519,10531,15327,0.075,551
2019-10-25T12:36:16,42.805,6.029,CST-1368DR,7519,10532,15328,0.074,551
2019-10-25T12:39:18,42.805,6.029,CST-1368DR,7519,10532,15328,0.074,550
2019-10-25T12:42:20,42.805,6.029,CST-1368DR,7519,10531,15327,0.075,551
2019-10-25T12:45:21,42.805,6.029,CST-1368DR,7519,10531,15327,0.075,550
2019-10-25T12:48:23,42.805,6.029,CST-1368DR,7519,10532,15328,0.074,551
2019-10-25T12:51:25,42.805,6.029,CST-1368DR,7519,10531,15327,0.075,551
2019-10-25T12:54:26,42.805,6.029,CST-1368DR,7519,10530,15325,0.075,551
2019-10-25T12:57:28,42.805,6.029,CST-1368DR,7519,10531,15328,0.074,551
2019-10-25T13:00:30,42.805,6.029,CST-1368DR,7519,10531,15327,0.075,551
2019-10-25T13:03:31,42.805,6.029,CST-1368DR,7519,10531,15327,0.075,551
2019-10-25T13:06:33,42.805,6.029,CST-1368DR,7519,10531,15327,0.075,550
2019-10-25T13:09:35,42.805,6.029,CST-1368DR,7519,10530,15326,0.075,551
2019-10-25T13:12:36,42.805,6.029,CST-1368DR,7519,10531,15327,0.075,551
2019-10-25T13:15:38,42.805,6.029,CST-1368DR,7519,10530,15326,0.075,551
2019-10-25T13:18:39,42.805,6.029,CST-1368DR,7519,10531,15327,0.075,551
2019-10-25T13:21:41,42.805,6.029,CST-1368DR,7519,10530,15326,0.075,551
2019-10-25T13:24:43,42.805,6.029,CST-1368DR,7519,10531,15327,0.075,551
2019-10-25T13:27:44,42.805,6.029,CST-1368DR,7519,10530,15326,0.075,551
2019-10-25T13:30:46,42.805,6.029,CST-1368DR,7519,10530,15326,0.075,551
2019-10-25T13:33:48,42.805,6.029,CST-1368DR,7518,10387,15119,0.129,551
2019-10-25T13:36:49,42.805,6.029,CST-1368DR,7519,10531,15327,0.075,551
2019-10-25T13:39:51,42.805,6.029,CST-1368DR,7519,10531,15327,0.075,551
2019-10-25T13:42:53,42.805,6.029,CST-1368DR,7519,10531,15327,0.075,550
2019-10-25T13:45:54,42.805,6.029,CST-1368DR,7519,10530,15325,0.075,551
2019-10-25T13:48:56,42.805,6.029,CST-1368DR,7519,10530,15326,0.075,551
2019-10-25T13:51:58,42.805,6.029,CST-1368DR,7519,10531,15327,0.075,551
2019-10-25T13:54:59,42.805,6.029,CST-1368DR,7519,10531,15327,0.075,551
2019-10-25T13:58:01,42.805,6.029,CST-1368DR,7518,10531,15329,0.074,551
2019-10-25T14:01:02,42.805,6.029,CST-1368DR,7519,10530,15326,0.075,551
2019-10-25T14:04:04,42.805,6.029,CST-1368DR,7519,10530,15326,0.075,551
2019-10-25T14:07:06,42.805,6.029,CST-1368DR,7518,10531,15330,0.074,551
2019-10-25T14:10:07,42.805,6.029,CST-1368DR,7518,10531,15329,0.074,551
2019-10-25T14:13:09,42.805,6.029,CST-1368DR,7518,10529,15326,0.075,551
2019-10-25T14:16:11,42.805,6.029,CST-1368DR,7518,10529,15326,0.075,551
2019-10-25T14:19:12,42.805,6.029,CST-1368DR,7518,10528,15325,0.075,551
2019-10-25T14:22:14,42.805,6.029,CST-1368DR,7513,9940,14478,0.303,551
2019-10-25T14:25:16,42.805,6.029,CST-1368DR,7518,10529,15326,0.075,551
2019-10-25T14:28:17,42.805,6.029,CST-1368DR,7518,10530,15327,0.075,551
2019-10-25T14:31:19,42.805,6.029,CST-1368DR,7518,10530,15327,0.075,551
2019-10-25T14:34:21,42.805,6.029,CST-1368DR,7518,10530,15328,0.074,551
2019-10-25T14:37:22,42.805,6.029,CST-1368DR,7518,10530,15328,0.074,551
2019-10-25T14:40:24,42.805,6.029,CST-1368DR,7518,10531,15329,0.074,551
2019-10-25T14:43:26,42.805,6.029,CST-1368DR,7518,10528,15325,0.075,551
2019-10-25T14:46:27,42.805,6.029,CST-1368DR,7518,10530,15327,0.075,551
2019-10-25T14:49:29,42.805,6.029,CST-1368DR,7518,10529,15326,0.075,551
2019-10-25T14:52:30,42.805,6.029,CST-1368DR,7518,10528,15325,0.075,551
2019-10-25T14:55:32,42.805,6.029,CST-1368DR,7518,10530,15327,0.075,551
2019-10-25T14:58:34,42.805,6.029,CST-1368DR,7518,10530,15327,0.075,551
2019-10-25T15:01:35,42.805,6.029,CST-1368DR,7518,10530,15327,0.075,551
2019-10-25T15:04:37,42.805,6.029,CST-1368DR,7518,10530,15328,0.074,551
2019-10-25T15:07:39,42.805,6.029,CST-1368DR,7518,10531,15329,0.074,551
2019-10-25T15:10:40,42.805,6.029,CST-1368DR,7518,10530,15328,0.074,551
2019-10-25T15:13:42,42.805,6.029,CST-1368DR,7518,10530,15327,0.075,550
2019-10-25T15:16:44,42.805,6.029,CST-1368DR,7518,10530,15327,0.075,551
2019-10-25T15:19:45,42.805,6.029,CST-1368DR,7518,10528,15324,0.076,551
2019-10-25T15:22:47,42.805,6.029,CST-1368DR,7516,10155,14785,0.219,551
2019-10-25T15:25:49,42.805,6.029,CST-1368DR,7518,10529,15326,0.075,551
2019-10-25T15:28:50,42.805,6.029,CST-1368DR,7518,10528,15325,0.075,551
2019-10-25T15:31:52,42.805,6.029,CST-1368DR,7518,10530,15328,0.074,551
2019-10-25T15:34:54,42.805,6.029,CST-1368DR,7518,10530,15328,0.074,551
2019-10-25T15:37:55,42.805,6.029,CST-1368DR,7518,10530,15327,0.075,550
2019-10-25T15:40:57,42.805,6.029,CST-1368DR,7518,10530,15328,0.074,551
2019-10-25T15:43:59,42.805,6.029,CST-1368DR,7518,10527,15323,0.076,551
2019-10-25T15:47:00,42.805,6.029,CST-1368DR,7518,10530,15328,0.074,551
2019-10-25T15:50:02,42.805,6.029,CST-1368DR,7518,10528,15325,0.075,551
2019-10-25T15:53:04,42.805,6.029,CST-1368DR,7518,10530,15328,0.074,551
2019-10-25T15:56:05,42.805,6.029,CST-1368DR,7518,10528,15325,0.075,551
2019-10-25T15:59:07,42.805,6.029,CST-1368DR,7518,10530,15328,0.074,551
2019-10-25T16:02:09,42.805,6.029,CST-1368DR,7518,10529,15326,0.075,551
2019-10-25T16:05:10,42.805,6.029,CST-1368DR,7518,10530,15328,0.074,551
2019-10-25T16:08:12,42.805,6.029,CST-1368DR,7518,10531,15329,0.074,551
2019-10-25T16:11:14,42.805,6.029,CST-1368DR,7518,10530,15328,0.074,551
2019-10-25T16:14:15,42.805,6.029,CST-1368DR,7518,10530,15328,0.074,551
2019-10-25T16:17:17,42.805,6.029,CST-1368DR,7518,10530,15327,0.075,551
2019-10-25T16:20:19,42.805,6.029,CST-1368DR,7518,10530,15327,0.075,551
2019-10-25T16:23:20,42.805,6.029,CST-1368DR,7517,10373,15101,0.134,551
2019-10-25T16:26:22,42.805,6.029,CST-1368DR,7518,10528,15325,0.075,551
2019-10-25T16:29:24,42.805,6.029,CST-1368DR,7518,10529,15326,0.075,551
2019-10-25T16:32:25,42.805,6.029,CST-1368DR,7518,10529,15326,0.075,551
2019-10-25T16:35:27,42.805,6.029,CST-1368DR,7518,10529,15326,0.075,551
2019-10-25T16:38:29,42.805,6.029,CST-1368DR,7518,10529,15326,0.075,551